Powrót do katalogu

DELTA 1 DEB

AktywnyPO
NORAD 12263·DEBRIS·🇺🇸 United States

Wystrzelony Mar 5, 1978 z Vandenberg Space Force Base

Loading…

Następne Przeloty (najbliższe 24 godziny)

TLE

ŚwieżeSource: Space-Track

Epoka: Sep 14, 2026, 12:20 UTC

1 12263U 78026DG  26257.51415687  .00000413  00000-0  54560-3 0  9997
2 12263  98.9419   0.5810 0417530 138.7767 224.5697 13.34467615181699

Śledź DELTA 1 DEB w czasie rzeczywistym z AllMySat

Download on the App Store